Regional Weather Roundup
Issued by NWS

Home | Current Version | Previous Version | Graphics & Text | Print | Product List | Glossary On
Versions: 1 2 3 4 5 6 7 8 9 10 11 12 13 14 15 16 17 18 19 20 21 22 23 24 25 26 27 28 29 30 31 32 33 34 35 36 37 38 39 40 41 42 43 44 45 46 47 48 49 50
000
ASUS43 KLOT 302000
RWRIL

ILLINOIS REGIONAL WEATHER ROUNDUP
NATIONAL WEATHER SERVICE CHICAGO/ROMEOVILLE IL
300 PM CDT MON MAR 30 2015

NOTE: "FAIR" INDICATES FEW OR NO CLOUDS BELOW 12,000 FEET WITH NO
SIGNIFICANT WEATHER AND/OR OBSTRUCTIONS TO VISIBILITY.

* THESE STATIONS ARE NOT UNDER NWS QUALITY CONTROL. THEY ALSO MAY NOT
  REPORT WEATHER SUCH AS PRECIPITATION OR FOG.

ILZ001-002-007-009-015-016-024-302100-
NORTHWEST ILLINOIS

CITY           SKY/WX    TMP DP  RH WIND       PRES   REMARKS
MOLINE         FAIR      70  27  20 W16G23    29.95F
$$

ILZ003-004-008-010-011-017-018-302100-
NORTH CENTRAL ILLINOIS

CITY           SKY/WX    TMP DP  RH WIND       PRES   REMARKS
ROCKFORD       NOT AVBL
$$

ILZ005-006-012>014-019>023-302100-
NORTHEAST ILLINOIS

CITY           SKY/WX    TMP DP  RH WIND       PRES   REMARKS
CHICAGO-OHARE  CLOUDY    60  31  33 W14G21    29.97F
CHICAGO-MIDWAY NOT AVBL
AURORA         FAIR      63  31  30 W20       29.97F
WAUKEGAN       NOT AVBL
DUPAGE AIRPORT FAIR      61  30  31 W16G28    29.97F
WHEELING       FAIR      59  28  30 W14G22    29.98F
NORTHERLY ISL    N/A     59  25  27 SW13        N/A
$$

LMZ740>746-302100-
SOUTHERN LAKE MICHIGAN

STATION/POSITION SKY/WX   TEMP    WIND        PRES    VSBY  WAVE
                          AIR SEA DIR/SP/G                  HT/PER
                          (F)     (DEG/KT/KT) (MB)    (MI)  (FT/S)
HARRISON CRIB              55     260/ 12/ 17   N/A
BURNHAM HARBOR             58     270/  6/ 18   N/A
CALUMET HARBOR             59     230/  7/ 15 1014.5F
BURNS HARBOR               56     220/  1/  2 1016.9F
MICHIGAN CITY              51     210/  4/  4   N/A
$$

ILZ025>027-034>036-040-047-049-050-058-095>099-302100-
WEST-CENTRAL ILLINOIS

CITY           SKY/WX    TMP DP  RH WIND       PRES   REMARKS
$$

ILZ028>032-037-038-041>044-048-051>054-059>061-302100-
CENTRAL ILLINOIS

CITY           SKY/WX    TMP DP  RH WIND       PRES   REMARKS
PEORIA         NOT AVBL
SPRINGFIELD    FAIR      68  29  23 W18       30.06F
TAYLORVILLE    NOT AVBL
$$

ILZ033-039-045-046-055>057-062-063-302100-
EAST-CENTRAL ILLINOIS

CITY           SKY/WX    TMP DP  RH WIND       PRES   REMARKS
MATTOON        FAIR      62  31  31 W8        30.08F
$$

ILZ079-100>102-302100-
SOUTHWEST ILLINOIS

CITY           SKY/WX    TMP DP  RH WIND       PRES   REMARKS
CAHOKIA*       FAIR      67  27  22 MISG      30.11F
$$

ILZ064>066-069>071-074>076-080>082-084>086-088>090-092>094-302100-
SOUTH-CENTRAL ILLINOIS

CITY           SKY/WX    TMP DP  RH WIND       PRES   REMARKS
CARBONDALE     FAIR      64  28  25 CALM      30.13F
MARION         SUNNY     64  28  25 W6        30.14F
$$

ILZ067-068-072-073-078-083-087-091-302100-
SOUTHEAST ILLINOIS

CITY           SKY/WX    TMP DP  RH WIND       PRES   REMARKS
FLORA*         FAIR      64  30  28 W7        30.12F
$$

ABBREVIATIONS USED IN REMARKS
   TC - TEMPERATURE IN CELSIUS
  WCI - WIND CHILL INDEX
   HX - HEAT INDEX
  VSB - VISIBILITY
$$



USA.gov is the U.S. government's official web portal to all federal, state and local government web resources and services.